Weather History for New Ulm, MN

Change the Weather History Date:

Wednesday, May 13, 2009

  Actual Average Record
Temperature  
Mean Temperature 62 °F -  
Max Temperature 69 °F 69 °F 90 °F (1987)
Min Temperature 55 °F 43 °F 28 °F (1997)
Degree Days  
Heating Degree Days 3    
Growing Degree Days 12 (Base 50)    
Moisture  
Dew Point 51 °F    
Average Humidity 74    
Maximum Humidity 100    
Minimum Humidity 16    
Precipitation  
Precipitation 0.01 in - - ()
Sea Level Pressure  
Sea Level Pressure 29.57 in    
Wind  
Wind Speed 16 mph (WSW)    
Max Wind Speed 34 mph    
Max Gust Speed 44 mph    
Visibility 8 miles    
Events Rain    
Averages and records for this station are not official NWS values.
T = Trace of Precipitation, MM = Missing Value Source: NWS Daily Summary

Daily Weather History Graph

Daily Weather History Graph

Search for Another Location

Airport:

Trip Planner

Search our weather history database for the weather conditions in past years. The results will help you decide how hot, cold, wet, or windy it might be!

Date:

Astronomy

May. 13, 2009 Rise Set
Actual Time 5:52 AM CDT 8:36 PM CDT
Civil Twilight 5:19 AM CDT 9:09 PM CDT
Nautical Twilight 4:37 AM CDT 9:52 PM CDT
Astronomical Twilight 3:48 AM CDT 10:41 PM CDT
Moon 12:19 AM CDT (5/13) 8:59 AM CDT (5/13)
Length of Visible Light 15h 50m
Length of Day
14h 43m
Waning Gibbous, 82% of the Moon is Illuminated
May 13
Waning Gibbous
May 17
Last Quarter
May 24
New
May 30
First Quarter
Jun 7
Full

Hourly Weather History & Observations

Time (CDT) Temp. Dew Point Humidity Pressure Visibility Wind Dir Wind Speed Gust Speed Precip Events Conditions
12:15 AM 55.4 °F 55.4 °F 100% 29.60 in 3.0 mi SSE 20.7 mph 29.9 mph N/A   Drizzle
12:35 AM 55.4 °F 55.4 °F 100% 29.60 in 3.0 mi SSE 18.4 mph 26.5 mph N/A Rain Light Rain
12:55 AM 57.2 °F 57.2 °F 100% 29.61 in 3.0 mi SSE 19.6 mph 26.5 mph N/A Rain Rain
1:15 AM 57.2 °F 57.2 °F 100% 29.61 in 3.0 mi South 19.6 mph - N/A Rain Light Rain
1:35 AM 57.2 °F 57.2 °F 100% 29.60 in 3.0 mi South 18.4 mph - N/A Rain Rain
1:55 AM 57.2 °F 57.2 °F 100% 29.60 in 2.5 mi South 16.1 mph 24.2 mph N/A   Light Drizzle
2:15 AM 57.2 °F 57.2 °F 100% 29.58 in 2.5 mi SSE 16.1 mph - N/A   Light Drizzle
2:35 AM 57.2 °F 57.2 °F 100% 29.57 in 4.0 mi SSE 17.3 mph - N/A   Overcast
2:55 AM 57.2 °F 57.2 °F 100% 29.55 in 3.0 mi SSE 16.1 mph - N/A   Mostly Cloudy
3:15 AM 57.2 °F 57.2 °F 100% 29.57 in 3.0 mi South 15.0 mph 19.6 mph N/A   Overcast
3:35 AM 57.2 °F 57.2 °F 100% 29.57 in 3.0 mi South 16.1 mph - N/A   Mostly Cloudy
3:55 AM 57.2 °F 57.2 °F 100% 29.57 in 2.5 mi South 15.0 mph 19.6 mph N/A   Mostly Cloudy
4:15 AM 57.2 °F 57.2 °F 100% 29.56 in 3.0 mi South 13.8 mph - N/A   Mostly Cloudy
4:35 AM 57.2 °F 57.2 °F 100% 29.54 in 3.0 mi SSE 16.1 mph 19.6 mph N/A   Overcast
4:55 AM 57.2 °F 57.2 °F 100% 29.54 in 7.0 mi South 15.0 mph 20.7 mph N/A   Overcast
5:15 AM 57.2 °F 57.2 °F 100% 29.57 in 7.0 mi South 13.8 mph - N/A Rain Light Rain
5:35 AM 57.2 °F 57.2 °F 100% 29.53 in 7.0 mi SSE 18.4 mph - N/A Rain Light Rain
5:55 AM 57.2 °F 57.2 °F 100% 29.52 in 7.0 mi SSE 16.1 mph - N/A   Overcast
6:35 AM 59.0 °F 59.0 °F 100% 29.55 in 7.0 mi SW 10.4 mph - N/A   Overcast
6:55 AM 59.0 °F 59.0 °F 100% 29.56 in 7.0 mi SW 8.1 mph - N/A   Overcast
7:15 AM 59.0 °F 59.0 °F 100% 29.56 in 7.0 mi SSW 6.9 mph - N/A   Overcast
7:35 AM 60.8 °F 60.8 °F 100% 29.56 in 5.0 mi SW 8.1 mph - N/A   Mostly Cloudy
7:55 AM 60.8 °F 60.8 °F 100% 29.56 in 5.0 mi SW 5.8 mph - N/A   Mostly Cloudy
8:15 AM 60.8 °F 60.8 °F 100% 29.55 in 7.0 mi SW 8.1 mph - N/A   Scattered Clouds
8:35 AM 60.8 °F 60.8 °F 100% 29.55 in 7.0 mi WSW 8.1 mph - N/A   Scattered Clouds
8:55 AM 62.6 °F 62.6 °F 100% 29.55 in 7.0 mi WSW 8.1 mph - N/A   Scattered Clouds
9:15 AM 64.4 °F 62.6 °F 94% 29.55 in 10.0 mi West 13.8 mph - N/A   Clear
9:35 AM 64.4 °F 62.6 °F 94% 29.55 in 10.0 mi West 13.8 mph 23.0 mph N/A   Scattered Clouds
9:55 AM 64.4 °F 60.8 °F 88% 29.55 in 10.0 mi WNW 13.8 mph 17.3 mph N/A   Scattered Clouds
10:14 AM 64.4 °F 59.0 °F 83% 29.54 in 10.0 mi WNW 13.8 mph - N/A   Clear
10:35 AM 66.2 °F 59.0 °F 78% 29.55 in 10.0 mi NW 11.5 mph - N/A   Clear
10:55 AM 66.2 °F 55.4 °F 68% 29.55 in 10.0 mi WNW 11.5 mph 17.3 mph N/A   Clear
11:15 AM 66.2 °F 55.4 °F 68% 29.55 in 10.0 mi WNW 9.2 mph - N/A   Clear
11:35 AM 66.2 °F 53.6 °F 64% 29.56 in 10.0 mi WNW 5.8 mph - N/A   Scattered Clouds
11:55 AM 68.0 °F 51.8 °F 56% 29.56 in 10.0 mi WNW 6.9 mph - N/A   Scattered Clouds
12:15 PM 66.2 °F 51.8 °F 60% 29.57 in 10.0 mi West 8.1 mph - N/A Rain Light Rain
12:35 PM 66.2 °F 51.8 °F 60% 29.58 in 10.0 mi West 9.2 mph - N/A   Mostly Cloudy
12:55 PM 64.4 °F 53.6 °F 68% 29.59 in 10.0 mi WNW 13.8 mph - N/A Rain Light Rain
1:15 PM 64.4 °F 51.8 °F 64% 29.59 in 10.0 mi WNW 12.7 mph - N/A   Mostly Cloudy
1:35 PM 64.4 °F 50.0 °F 59% 29.59 in 10.0 mi WNW 10.4 mph - N/A   Mostly Cloudy
1:55 PM 66.2 °F 50.0 °F 56% 29.59 in 10.0 mi WNW 10.4 mph - N/A   Mostly Cloudy
2:15 PM 66.2 °F 51.8 °F 60% 29.58 in 10.0 mi NW 12.7 mph - N/A   Scattered Clouds
2:35 PM 66.2 °F 48.2 °F 52% 29.58 in 10.0 mi WNW 15.0 mph - N/A   Clear
2:55 PM 68.0 °F 48.2 °F 49% 29.58 in 10.0 mi WNW 13.8 mph 21.9 mph N/A   Scattered Clouds
3:15 PM 68.0 °F 46.4 °F 46% 29.57 in 10.0 mi West 10.4 mph 18.4 mph N/A   Clear
3:35 PM 69.8 °F 44.6 °F 40% 29.57 in 10.0 mi WNW 17.3 mph 23.0 mph N/A   Clear
3:55 PM 68.0 °F 42.8 °F 40% 29.58 in 10.0 mi West 15.0 mph - N/A   Clear
4:15 PM 68.0 °F 37.4 °F 33% 29.58 in 10.0 mi West 20.7 mph 24.2 mph N/A   Clear
4:35 PM 68.0 °F 39.2 °F 35% 29.58 in 10.0 mi West 16.1 mph 21.9 mph N/A   Clear
4:55 PM 68.0 °F 37.4 °F 33% 29.57 in 10.0 mi West 18.4 mph - N/A   Clear
5:14 PM 68.0 °F 30.2 °F 24% 29.58 in 10.0 mi WNW 24.2 mph 31.1 mph N/A   Clear
5:35 PM 69.8 °F 26.6 °F 20% 29.57 in 10.0 mi WNW 23.0 mph 32.2 mph N/A   Clear
5:55 PM 68.0 °F 28.4 °F 23% 29.59 in 10.0 mi West 24.2 mph 31.1 mph N/A   Clear
6:15 PM 66.2 °F 28.4 °F 24% 29.60 in 10.0 mi WNW 34.5 mph 41.4 mph N/A   Clear
6:35 PM 66.2 °F 26.6 °F 23% 29.62 in 10.0 mi WNW 34.5 mph 43.7 mph N/A   Scattered Clouds
6:55 PM 64.4 °F 17.6 °F 16% 29.62 in 10.0 mi West 28.8 mph 41.4 mph 0.01 in   Scattered Clouds
7:15 PM 64.4 °F 19.4 °F 18% 29.63 in 10.0 mi WNW 28.8 mph 40.3 mph N/A   Clear
7:35 PM 62.6 °F 12.2 °F 14% 29.63 in 10.0 mi West 28.8 mph 34.5 mph N/A   Clear
7:55 PM 62.6 °F 12.2 °F 14% 29.64 in 10.0 mi West 24.2 mph 39.1 mph N/A   Clear
8:15 PM 60.8 °F 17.6 °F 19% 29.65 in 10.0 mi WNW 17.3 mph 23.0 mph N/A   Clear
8:35 PM 59.0 °F 19.4 °F 22% 29.65 in 10.0 mi WNW 23.0 mph 29.9 mph N/A   Clear
8:55 PM 57.2 °F 17.6 °F 21% 29.66 in 10.0 mi West 20.7 mph 29.9 mph N/A   Clear
9:14 PM 57.2 °F 19.4 °F 23% 29.66 in 10.0 mi West 18.4 mph 24.2 mph N/A   Clear
9:35 PM 55.4 °F 21.2 °F 26% 29.67 in 10.0 mi West 16.1 mph 21.9 mph N/A   Clear
9:55 PM 53.6 °F 26.6 °F 35% 29.68 in 10.0 mi West 17.3 mph - N/A   Clear
10:15 PM 53.6 °F 26.6 °F 35% 29.69 in 10.0 mi West 21.9 mph 29.9 mph N/A   Clear
10:35 PM 53.6 °F 28.4 °F 38% 29.69 in 10.0 mi West 18.4 mph 26.5 mph N/A   Clear
10:55 PM 51.8 °F 32.0 °F 47% 29.69 in 10.0 mi West 19.6 mph - N/A   Clear
11:15 PM 51.8 °F 33.8 °F 50% 29.70 in 10.0 mi West 20.7 mph 27.6 mph N/A   Clear
11:35 PM 51.8 °F 33.8 °F 50% 29.72 in 10.0 mi West 23.0 mph 26.5 mph N/A   Clear
11:55 PM 51.8 °F 33.8 °F 50% 29.74 in 10.0 mi West 25.3 mph 33.4 mph N/A   Clear